Regional Weather Roundup
Issued by NWS Northern Indiana

Home | Current Version | Previous Version | Text Only | Print | Product List | Glossary Off
Versions: 1 2 3 4 5 6 7 8 9 10 11 12 13 14 15 16 17 18 19 20 21 22 23 24 25 26 27 28 29 30 31 32 33 34 35 36 37 38 39 40 41 42 43 44 45 46 47 48 49 50

000
ASUS43 KIWX 281310
RWRIWX

KIWX WEATHER ROUNDUP
NATIONAL WEATHER SERVICE NORTHERN INDIANA
900 AM EDT WED SEP 28 2016

NOTE: "FAIR" INDICATES FEW OR NO CLOUDS BELOW 12,000 FEET WITH NO
SIGNIFICANT WEATHER AND/OR OBSTRUCTIONS TO VISIBILITY.

* THESE STATIONS ARE NOT UNDER NWS QUALITY CONTROL. THEY ALSO MAY NOT
  REPORT WEATHER SUCH AS PRECIPITATION OR FOG.

INZ001>027-281400-
NORTHERN INDIANA

CITY           SKY/WX    TMP DP  RH WIND       PRES   REMARKS
GARY*          LGT RAIN  55  52  88 N12       29.82R
VALPARAISO     CLOUDY    54  49  83 N7        29.80R
MICHIGAN CITY* CLOUDY    54  50  87 CALM      29.81S
LAPORTE*       CLOUDY    55  54  97 NE8       29.80R
KNOX*          CLOUDY    50  36  57 N6        29.79R
SOUTH BEND     CLOUDY    51  50  96 N6        29.81R
ELKHART*       LGT RAIN N/A N/A N/A N5        29.80S
GOSHEN         CLOUDY    52  45  77 CALM      29.80R
MONTICELLO*    CLOUDY    53  49  87 CALM      29.77R
LOGANSPORT*    CLOUDY    52  50  93 W3        29.79F
ROCHESTER*     LGT RAIN  54  52  94 E3        29.79R
WARSAW*        LGT RAIN  52  43  71 CALM      29.81R
ANGOLA*          N/A     50  37  62 CALM      29.80S
FORT WAYNE     CLOUDY    56  49  77 SE3       29.82R
HUNTINGTON*    LGT RAIN  56  49  78 CALM      29.80S
PERU/GRISSOM   LGT RAIN  54  50  85 E7        29.77S
MARION*        CLOUDY    55  52  92 CALM      29.81R FOG

$$
INZ028>050-281400-
CENTRAL INDIANA

CITY           SKY/WX    TMP DP  RH WIND       PRES   REMARKS
LAFAYETTE      LGT RAIN  54  50  86 W3        29.78R
MUNCIE*        MOSUNNY   58  54  86 S6        29.80R
INDIANAPOLIS   TSTM      57  55  93 NW7       29.80R

$$
MIZ043>046-050>051-056>058-064>065-071>073-077>080-281400-
SOUTHWEST LOWER MICHIGAN

CITY           SKY/WX    TMP DP  RH WIND       PRES   REMARKS
BATTLE CREEK   CLOUDY    54  45  71 NE8       29.83R
BENTON HARBOR  CLOUDY    53  49  86 VRB3      29.82R
COLDWATER*     CLOUDY    53  47  81 NE5       29.81S
HILLSDALE*     CLOUDY    52  45  76 E5        29.82R
HOLLAND        CLOUDY    53  50  89 NE7       29.84S
GRAND RAPIDS   CLOUDY    52  49  89 NE10      29.86R
KALAMAZOO      CLOUDY    54  44  69 NE6       29.83R
STURGIS*       CLOUDY    52  46  80 E3        29.80R
THREE RIVERS*  CLOUDY    54  48  80 NE3       29.82R

$$
OHZ001>008-015>018-024>025-281400-
NORTHWEST OHIO

CITY           SKY/WX    TMP DP  RH WIND       PRES   REMARKS
WAUSEON*       FAIR      52  48  87 E6        29.83R
DEFIANCE       PTSUNNY   56  49  77 E7        29.82R
FINDLAY        LGT RAIN  55  51  86 E8        29.84F
TOLEDO EXPRESS CLOUDY    56  49  77 SE10G22   29.84R
TOLEDO METCALF RAIN      56  51  84 S7        29.90R
LIMA           CLOUDY    53  53 100 E10       29.82F

$$
AND FOR LAKE MICHIGAN COASTAL AND OPEN LAKE BUOY OBSERVATIONS

STATION/POSITION TEMP    WIND        PRES    VSBY  WAVE
                 AIR SEA DIR/SP/G                  HT/PER
                 (F)     (DEG/KT/KT) (MB)    (MI)  (FT/S)
CALUMET HARBOR    54     340/  7/ 13 1009.5R
MICHIGAN CITY     56      10/ 16/ 19   N/A
BURNS HARBOR      57     360/ 14/ 17 1009.8R
SAINT JOSEPH      53      40/  2/  7 1010.2
SOUTH LAKE BUOY   56 69   80/  4/  6 1009.9R         1/ 3
4 MI NW BRIDGMAN  56 66  350/ 12/ 16 1009.9          3/ 4
MICHIGAN CITY     58 66   30/ 14/ 19   N/A           3/ 4

$$
&&




USA.gov is the U.S. government's official web portal to all federal, state and local government web resources and services.